Location: ??????
(42.0089°N, 44.3281°E)
Time: 17:19:20
(UTC+00:00)

USA 267 - Pass Details

Date: 04 June 2022
Orbit: 1101 x 1106 km, 123.0° (Epoch: 28 June)

Event Time Altitude Azimuth Distance (km) Brightness Sun altitude
Rises 21:05:46 0° 98° (E) 3,913 6.1 -25.5°
Reaches altitude 10° 21:08:24 10° 91° (E) 2,957 5.5 -25.5°
Maximum altitude 21:14:21 39° 26° (NNE) 1,588 4.5 -25.4°
Drops below altitude 10° 21:20:18 10° 320° (NW) 2,965 6.1 -25.3°
Sets 21:22:57 0° 313° (NW) 3,925 6.7 -25.3°
